Location: Alafon
(8.4500°N, 4.2333°E)
Time: 09:54:19
(UTC+00:00)

A-11 Canister half - Pass Details

Date: 07 August 2021
Orbit: 1515 x 1685 km, 47.2° (Epoch: 21 September)

Event Time Altitude Azimuth Distance (km) Brightness Sun altitude
Rises 12:17:00 0° 220° (SW) 4,653 11.5 79.6°
Reaches altitude 10° 12:20:00 10° 219° (SW) 3,677 11.1 79.1°
Maximum altitude 12:29:18 89° 128° (SE) 1,545 11.2 77.4°
Drops below altitude 10° 12:38:52 10° 41° (NE) 3,779 11.2 75.5°
Sets 12:42:00 0° 41° (NE) 4,787 11.6 74.9°
